Temperature
14 14 13 13 13 13 13 13 13 13 13 13 13 13 12 13 13 12 12 13 13 13 13 13 12 12 12 12 12 12 12 12 12 12 12 12 12 12 12 12 12 12 12
14 14 13 13 13 13 13 13 13 13 13 13 12 12 12 12 12 12 12 12 12 12 12 12 12 12 12 12 12 12 12 12 12 12 12 12 12 12 12 12 11 11 11
14 14 13 13 13 13 13 13 13 13 13 13 13 12 12 12 12 12 12 12 12 12 12 12 12 12 12 12 12 12 11 11 11 11 11 11 11 11 11 11 11 11 11
14 14 13 13 13 13 13 13 13 13 13 13 13 12 12 12 12 12 12 12 12 12 12 12 12 12 12 12 11 11 11 11 11 11 11 11 11 11 11 11 11 11 11
14 14 14 13 13 13 13 13 13 13 13 13 12 12 12 12 12 12 12 12 12 12 12 12 12 12 11 11 11 11 11 11 11 11 11 11 11 11 10 10 10 10 10
14 14 14 14 13 13 13 13 13 13 12 12 12 12 12 12 12 12 12 12 12 12 12 12 11 12 11 11 11 11 11 11 11 10 10 10 10 10 10 10 10 10 10
14 14 14 14 13 13 13 13 13 12 12 12 12 12 12 12 12 12 12 12 12 12 12 12 11 11 11 11 11 11 11 11 10 10 10 10 10 10 10 10 10 10 10
14 14 14 14 14 13 13 13 13 12 12 12 12 12 12 12 13 12 12 12 12 12 12 12 11 11 11 11 11 11 10 10 10 10 10 10 10 10 10 10 10 10 10
14 14 14 14 14 13 13 13 13 13 12 12 12 12 12 12 12 12 12 12 12 12 12 12 11 11 11 11 11 10 10 10 10 10 10 10 10 10 10 9 9 9 9
14 14 14 14 14 13 13 13 13 13 12 12 12 12 12 12 12 12 12 12 12 12 11 11 11 11 11 11 10 10 10 10 10 10 10 10 9 9 9 9 9 9 9
14 14 14 13 13 13 13 13 13 13 13 13 13 12 12 12 12 12 12 12 12 11 11 11 11 11 11 11 10 10 10 10 10 10 10 10 9 9 9 9 9 9 9
14 13 13 13 13 13 13 13 13 13 13 13 13 13 13 13 12 12 12 12 12 11 11 11 11 11 11 11 10 10 10 10 10 9 9 9 9 9 9 9 9 9 9
13 13 13 13 13 13 13 13 13 13 13 13 13 13 13 13 12 12 12 12 12 11 11 11 11 11 11 10 10 10 10 10 9 9 9 9 9 9 9 9 9 9 9
13 13 13 13 13 13 13 13 13 13 13 13 13 13 13 13 13 12 12 12 12 11 11 11 11 10 10 10 10 10 10 10 9 9 9 9 9 9 9 9 9 8 8
13 13 13 13 13 13 13 13 13 13 13 13 13 13 12 12 12 12 12 12 11 11 11 11 10 10 10 10 10 10 10 9 9 9 9 9 9 9 8 8 8 8 8
13 13 13 13 13 13 13 13 13 13 13 13 13 13 12 12 12 12 12 11 11 11 11 10 10 10 10 10 10 10 10 9 9 9 9 9 8 8 8 8 8 8 8
13 13 13 13 13 13 13 13 13 13 13 13 13 13 12 12 12 12 11 11 11 11 11 11 10 10 10 10 10 9 9 9 9 9 9 8 8 8 8 8 8 8 8
13 13 13 13 13 13 14 14 14 14 14 13 13 13 12 12 12 11 11 11 11 11 11 10 10 10 10 10 9 9 9 9 9 9 8 8 8 8 8 8 8 8 8
13 13 13 13 13 13 14 14 14 14 14 13 13 13 12 12 12 12 11 11 11 11 11 10 10 10 10 10 9 9 9 9 9 8 8 8 8 8 8 8 8 8 7
13 13 13 13 13 13 13 14 14 14 14 13 13 13 12 12 12 12 11 11 11 11 10 10 10 10 10 9 9 9 9 8 8 8 8 8 8 8 7 7 7 7 7
13 13 13 13 13 13 13 13 13 13 13 13 13 13 13 12 12 12 11 11 11 11 10 10 10 10 9 9 9 9 8 8 8 8 8 8 7 7 7 7 7 7 7
13 13 13 13 13 13 13 13 13 13 13 13 13 13 13 12 12 12 11 11 11 10 10 10 10 9 9 9 9 8 8 8 8 8 7 7 7 7 7 7 7 7 7
12 13 13 13 13 13 13 13 13 13 13 13 13 13 12 12 12 12 11 11 10 10 10 10 9 9 9 9 9 8 8 8 8 8 7 7 7 7 7 6 6 6 6
12 13 13 13 13 13 13 13 13 13 13 13 12 12 12 12 12 11 11 11 10 10 10 10 9 9 9 9 8 8 8 8 8 7 7 7 6 6 6 6 6 6 6
12 13 13 13 13 13 13 13 13 12 12 12 12 12 12 12 11 11 11 10 10 10 10 9 9 9 8 8 8 8 8 8 7 7 7 7 6 6 6 6 6 6 6
12 12 12 12 12 12 12 12 12 12 12 12 12 12 12 11 11 11 10 10 10 10 9 9 9 8 8 8 8 8 8 7 7 7 7 7 6 6 6 6 6 6 6
Wind_Speed
2 1 1 1 1 1 1 2 2 2 2 1 1 1 1 2 2 2 2 2 1 1 2 2 2 2 2 2 2 2 2 2 4 3 3 2 2 2 2 3 5 5 6
2 2 1 1 2 2 2 2 1 1 1 1 1 1 2 1 1 2 2 2 1 1 2 2 2 2 2 2 2 3 2 2 2 4 3 3 3 3 3 4 4 5 6
2 2 1 1 2 2 1 2 2 2 2 2 2 1 2 1 1 1 2 2 2 1 1 1 2 2 2 2 2 2 2 2 2 3 3 3 3 2 2 3 4 3 6
1 1 2 2 2 2 2 2 2 2 2 2 2 1 2 2 1 1 2 2 1 1 1 1 2 1 1 2 2 2 2 2 2 2 3 3 2 1 1 2 3 3 4
1 2 2 2 2 2 2 2 2 2 2 2 1 1 2 2 2 2 2 2 2 2 2 1 0 1 1 1 2 1 1 2 2 2 3 2 2 2 2 2 3 3 3
2 2 2 2 2 2 2 2 2 3 2 2 2 2 2 3 2 2 2 2 2 2 1 1 1 0 1 2 2 2 3 2 2 2 3 3 3 3 3 3 3 3 4
2 2 2 2 2 2 2 2 2 2 2 2 2 2 2 1 2 2 3 3 3 2 2 2 3 2 0 1 3 4 3 5 5 4 4 3 4 4 3 4 4 4 5
2 2 2 2 2 2 2 2 2 2 2 2 2 3 2 2 2 2 3 3 3 3 2 2 2 1 2 2 2 2 2 3 4 4 3 4 4 4 3 4 5 5 5
3 2 2 2 2 2 2 2 2 2 2 3 3 3 3 2 2 2 2 3 3 3 3 2 2 2 2 1 2 3 3 3 3 3 3 4 6 7 5 3 4 4 4
3 2 2 3 2 2 3 2 2 3 4 4 3 3 2 2 3 3 2 3 3 3 2 2 2 2 2 2 2 2 3 4 5 5 4 5 5 6 7 5 4 4 4
3 2 3 3 3 3 2 2 3 4 4 4 4 3 3 3 4 4 4 3 3 3 3 1 1 2 3 4 4 3 5 5 4 4 4 4 3 4 4 3 3 3 3
3 3 3 3 4 3 1 2 3 4 4 4 4 4 3 3 3 4 5 5 4 3 3 2 1 2 3 5 4 5 6 5 4 4 4 4 3 3 3 2 3 4 5
3 3 4 3 3 2 2 3 4 4 4 4 3 3 2 2 3 4 5 6 6 4 3 4 4 5 4 4 6 7 5 3 3 4 4 4 4 3 3 2 3 4 5
3 3 4 3 3 3 3 3 3 3 3 3 2 2 2 0 1 1 1 2 3 3 4 5 6 7 7 7 5 4 3 4 4 4 4 4 4 3 3 3 3 3 3
3 4 5 5 4 3 3 3 3 2 2 2 2 2 2 1 1 1 1 1 1 1 2 3 3 2 2 2 3 3 3 3 4 3 3 4 4 3 3 3 2 3 3
4 4 5 4 4 3 3 2 2 2 2 2 2 1 0 1 2 0 1 2 2 1 1 3 3 3 3 3 3 3 2 2 2 2 3 3 4 3 3 3 2 3 4
4 5 5 5 4 4 3 3 3 3 3 4 4 5 5 4 3 3 4 4 4 2 2 3 3 3 4 3 3 3 3 2 2 2 3 3 3 3 3 3 3 3 4
5 6 6 5 4 4 4 4 4 3 2 3 5 8 8 8 7 7 4 2 3 3 3 3 3 3 3 3 3 3 3 2 2 2 3 3 3 3 3 4 3 3 3
5 5 4 4 4 5 4 4 4 4 3 2 2 4 8 8 7 7 4 3 4 3 3 3 3 3 3 2 2 2 2 2 2 2 2 2 3 3 4 4 4 4 3
5 7 5 5 5 4 4 5 5 4 3 2 2 2 3 3 3 3 4 3 3 3 3 3 3 3 2 2 1 2 2 2 2 2 2 2 3 3 4 4 4 4 3
5 5 6 6 5 4 4 5 5 4 3 2 2 2 3 3 3 3 2 2 2 2 2 3 3 2 2 2 2 2 2 2 2 3 3 3 3 4 3 4 4 4 4
5 6 4 4 3 3 4 5 5 4 3 3 2 1 4 3 2 1 1 1 1 1 1 2 2 3 3 3 3 3 3 3 3 3 3 4 4 4 4 4 4 4 3
6 6 4 3 3 3 4 4 4 4 4 3 2 2 1 2 1 1 1 0 1 0 1 1 2 2 3 2 2 3 3 3 4 4 4 4 4 4 4 4 4 4 4
7 6 5 4 3 4 4 4 3 3 3 3 3 2 1 1 1 0 0 1 1 1 1 1 1 2 3 2 3 4 4 4 5 4 5 4 5 4 3 3 4 4 4
6 5 4 4 3 4 4 3 3 3 3 3 3 3 2 1 0 0 1 1 1 2 2 1 1 2 3 4 4 4 4 4 5 5 4 4 5 4 4 4 4 4 4
6 5 4 4 4 4 3 3 3 3 3 3 4 3 1 1 0 0 1 1 1 1 1 2 2 3 4 4 4 4 4 4 5 6 4 4 4 3 4 4 5 4 4
Wind_Direction
213 221 252 220 250 266 272 287 299 293 291 297 278 270 274 280 281 276 264 271 264 262 271 258 255 259 272 287 292 283 279 277 280 294 297 281 250 256 247 248 236 223 224
198 192 228 229 239 249 277 283 289 283 278 286 271 248 251 255 270 277 276 278 274 252 264 279 279 276 275 280 282 287 289 276 262 282 289 282 259 236 236 249 249 236 228
197 191 211 237 252 252 266 274 272 270 260 260 258 256 254 233 233 253 262 263 273 275 273 279 285 294 296 291 296 306 305 303 273 267 273 264 253 242 255 264 263 254 253
202 210 206 234 251 243 235 247 250 255 251 264 267 270 263 261 280 277 266 254 253 261 249 251 270 283 309 301 285 293 300 308 298 284 275 277 273 266 276 276 276 257 264
205 222 213 218 234 234 226 228 234 254 264 263 266 277 280 272 299 322 292 264 251 259 262 251 199 100 72 317 300 305 309 292 296 299 294 305 313 322 309 296 293 285 272
225 238 226 210 226 233 223 204 214 235 256 262 264 278 287 290 325 341 328 300 282 272 273 269 225 126 240 237 241 242 236 257 277 285 294 301 306 306 297 294 294 296 290
248 253 246 213 220 228 235 223 230 244 254 266 270 269 275 280 287 297 296 276 274 265 249 250 273 286 313 277 241 237 247 252 245 252 269 284 287 293 297 298 294 287 280
251 252 249 235 227 221 219 223 237 247 258 257 263 262 263 270 279 277 274 248 255 251 241 247 249 253 298 321 297 288 279 282 271 259 255 265 271 282 283 277 276 282 272
267 263 263 254 241 235 238 239 236 241 252 247 251 244 246 247 275 283 268 254 256 258 236 242 235 231 259 271 284 290 301 304 296 284 258 256 263 271 275 286 283 283 285
285 287 287 281 269 260 251 244 237 240 242 247 250 243 227 208 219 237 239 258 263 266 239 216 226 229 220 207 239 280 294 300 307 301 281 266 261 259 255 239 258 277 286
302 300 291 284 275 251 239 237 247 246 250 255 254 242 218 213 206 210 214 244 268 279 276 267 235 205 211 229 234 249 264 279 289 288 287 278 266 260 252 228 224 242 264
303 295 292 288 280 273 228 247 254 250 246 248 248 245 225 209 201 202 208 224 256 283 289 300 292 216 232 240 242 257 270 286 285 288 286 282 280 280 270 245 234 238 239
299 303 300 295 289 285 254 247 250 254 256 256 247 245 239 201 189 200 216 234 239 247 286 303 286 261 261 254 241 252 260 266 267 270 273 274 269 262 267 260 252 248 250
289 294 288 279 268 261 255 260 260 266 263 266 274 281 279 169 95 88 240 253 254 251 274 282 272 259 251 253 258 249 241 247 252 267 282 285 284 270 265 265 265 264 265
267 268 271 264 260 254 247 264 273 281 274 273 302 325 339 1 59 157 192 280 300 292 290 270 267 276 271 259 257 252 240 240 250 260 276 291 293 293 286 278 262 264 274
266 265 271 268 254 247 250 257 247 238 189 182 192 219 16 110 142 55 305 298 284 281 287 271 276 281 282 284 282 278 266 257 254 252 263 277 283 285 288 284 277 270 276
269 273 273 272 270 259 253 251 251 236 222 215 216 218 224 233 233 248 260 278 272 239 246 261 268 274 280 283 287 289 292 285 257 260 267 272 280 288 290 288 282 279 276
268 265 264 268 273 273 264 258 255 247 221 220 220 221 226 234 242 246 247 267 261 227 242 259 273 279 286 291 294 294 296 312 308 288 291 299 300 302 302 298 293 292 288
273 275 271 276 272 270 270 271 270 266 259 233 200 205 220 230 240 249 234 244 264 267 267 267 276 284 287 293 302 309 308 314 315 304 300 301 298 293 290 294 295 295 280
266 265 263 270 273 277 281 280 278 272 266 253 235 228 188 202 225 220 210 232 262 279 292 297 297 302 307 310 318 315 310 314 317 319 315 306 301 302 301 299 296 294 286
284 276 237 252 264 277 286 285 287 284 284 279 262 232 192 215 228 232 222 223 248 275 291 304 311 321 328 329 335 334 338 340 338 332 332 326 319 313 309 306 304 299 295
289 293 280 260 268 273 275 284 290 289 292 289 284 228 197 218 238 252 252 247 250 273 307 324 332 344 3 360 354 354 356 349 341 336 327 320 317 314 315 311 310 311 309
281 282 285 271 263 269 276 283 290 293 299 303 302 301 259 240 241 231 303 323 273 229 325 335 338 352 13 24 18 16 11 353 332 323 318 313 309 308 308 309 308 310 312
282 285 293 293 280 276 278 284 286 293 303 315 317 304 297 294 329 349 312 330 344 29 15 332 354 357 1 25 43 44 25 360 340 330 323 313 306 301 307 310 309 308 309
286 288 293 292 291 282 286 292 294 295 303 303 303 295 279 278 295 58 71 39 17 5 348 346 10 2 2 35 47 37 28 10 353 338 322 306 299 302 306 304 303 302 305
295 298 300 298 293 290 291 296 297 303 307 303 299 296 289 269 272 67 85 63 14 3 346 355 11 18 24 47 54 45 31 8 345 331 313 295 299 313 316 307 308 309 304
Height
1483 1483 1483 1483 1483 1483 1482 1482 1482 1481 1481 1481 1480 1480 1479 1479 1479 1479 1479 1479 1478 1478 1479 1479 1478 1479 1478 1478 1478 1477 1477 1477 1476 1476 1477 1477 1476 1476 1476 1476 1475 1475 1475
1482 1482 1482 1482 1481 1481 1481 1481 1481 1480 1480 1479 1479 1479 1478 1478 1478 1478 1478 1477 1477 1477 1476 1476 1476 1476 1476 1475 1475 1475 1474 1474 1474 1473 1473 1473 1473 1473 1473 1472 1472 1471 1471
1482 1482 1481 1481 1480 1480 1480 1480 1479 1479 1479 1479 1478 1478 1478 1477 1477 1477 1476 1476 1475 1475 1475 1475 1474 1474 1473 1473 1473 1472 1472 1472 1471 1471 1470 1470 1470 1470 1470 1469 1469 1468 1468
1481 1480 1480 1479 1479 1478 1478 1478 1478 1478 1478 1478 1477 1477 1477 1476 1476 1475 1475 1474 1474 1474 1473 1473 1472 1472 1471 1471 1471 1470 1469 1469 1469 1468 1468 1468 1467 1467 1467 1466 1465 1465 1464
1480 1480 1479 1478 1477 1477 1477 1477 1477 1477 1477 1477 1476 1476 1475 1475 1474 1474 1473 1473 1473 1472 1472 1471 1471 1470 1470 1469 1469 1468 1467 1467 1466 1466 1465 1465 1465 1464 1464 1463 1462 1461 1461
1479 1478 1478 1477 1476 1476 1476 1475 1475 1475 1475 1475 1475 1474 1474 1473 1473 1472 1472 1471 1471 1470 1470 1469 1469 1468 1468 1467 1467 1466 1465 1465 1464 1463 1463 1462 1462 1462 1461 1460 1460 1459 1457
1477 1477 1477 1476 1476 1475 1475 1474 1474 1474 1474 1473 1473 1472 1471 1471 1471 1470 1470 1469 1469 1468 1468 1467 1467 1466 1466 1465 1464 1464 1463 1462 1462 1461 1460 1460 1459 1459 1458 1457 1456 1456 1455
1476 1476 1475 1475 1474 1474 1473 1473 1473 1472 1472 1471 1471 1470 1469 1469 1468 1468 1468 1467 1467 1466 1465 1464 1464 1464 1463 1462 1462 1461 1461 1460 1459 1459 1458 1457 1457 1456 1455 1454 1453 1452 1451
1475 1474 1474 1474 1473 1472 1472 1471 1471 1471 1470 1469 1468 1468 1467 1467 1466 1466 1465 1465 1464 1464 1463 1462 1462 1461 1460 1460 1459 1458 1457 1457 1456 1456 1455 1454 1453 1452 1452 1451 1450 1449 1447
1473 1473 1473 1472 1472 1471 1470 1470 1469 1469 1468 1468 1467 1466 1465 1464 1464 1464 1463 1463 1462 1461 1461 1460 1459 1459 1458 1457 1456 1455 1454 1453 1453 1452 1451 1450 1449 1449 1448 1447 1446 1446 1444
1472 1471 1471 1470 1470 1469 1469 1468 1467 1467 1466 1465 1464 1464 1463 1463 1462 1461 1461 1460 1460 1459 1458 1458 1457 1456 1455 1454 1454 1453 1452 1451 1450 1449 1447 1446 1446 1445 1445 1444 1443 1442 1442
1470 1469 1469 1468 1468 1468 1467 1466 1466 1465 1464 1464 1463 1462 1461 1461 1460 1459 1458 1458 1458 1457 1456 1455 1454 1453 1453 1452 1451 1450 1449 1448 1447 1446 1445 1444 1443 1442 1441 1441 1440 1439 1438
1468 1467 1466 1466 1466 1465 1465 1464 1464 1463 1463 1462 1462 1461 1460 1459 1458 1457 1456 1456 1455 1454 1453 1453 1452 1451 1450 1449 1448 1448 1447 1446 1445 1443 1442 1441 1440 1440 1438 1437 1436 1435 1434
1466 1465 1465 1464 1463 1463 1463 1462 1462 1462 1461 1460 1460 1459 1459 1458 1457 1455 1454 1453 1453 1452 1451 1450 1450 1449 1448 1447 1446 1445 1444 1443 1442 1441 1440 1439 1438 1437 1435 1434 1433 1432 1431
1464 1464 1463 1462 1462 1461 1461 1460 1460 1459 1459 1459 1458 1457 1457 1456 1455 1454 1453 1451 1450 1450 1449 1448 1447 1446 1446 1445 1444 1443 1441 1440 1439 1438 1437 1436 1434 1433 1432 1431 1429 1428 1427
1462 1462 1461 1460 1460 1460 1459 1459 1458 1458 1457 1456 1456 1456 1454 1454 1453 1452 1451 1450 1449 1448 1447 1446 1445 1444 1443 1442 1441 1440 1439 1438 1437 1436 1434 1433 1432 1430 1429 1428 1427 1425 1424
1460 1459 1459 1459 1458 1458 1457 1456 1456 1455 1454 1454 1453 1453 1452 1451 1451 1450 1449 1448 1447 1446 1445 1444 1443 1442 1441 1440 1439 1438 1436 1435 1434 1433 1432 1430 1429 1427 1426 1425 1423 1422 1421
1457 1457 1456 1456 1456 1455 1455 1454 1454 1453 1452 1451 1451 1450 1450 1449 1448 1447 1447 1446 1445 1444 1443 1442 1441 1440 1439 1438 1436 1435 1434 1433 1431 1430 1429 1427 1426 1425 1423 1422 1421 1419 1418
1455 1454 1454 1453 1453 1453 1453 1452 1451 1451 1450 1449 1448 1448 1447 1446 1446 1445 1444 1443 1443 1442 1441 1440 1439 1438 1436 1435 1434 1433 1431 1430 1429 1427 1426 1425 1423 1422 1420 1419 1418 1416 1415
1452 1451 1451 1451 1450 1450 1450 1450 1449 1448 1448 1447 1446 1446 1445 1444 1443 1443 1442 1441 1441 1440 1439 1438 1437 1436 1435 1433 1432 1430 1429 1428 1426 1425 1424 1422 1421 1419 1418 1417 1415 1414 1412
1449 1449 1448 1448 1448 1448 1448 1447 1447 1446 1446 1445 1445 1444 1443 1442 1442 1442 1441 1440 1439 1438 1437 1436 1435 1434 1432 1431 1430 1428 1427 1426 1424 1423 1422 1420 1419 1417 1416 1415 1413 1412 1410
1447 1447 1446 1446 1445 1445 1445 1445 1444 1444 1444 1443 1443 1442 1441 1440 1440 1440 1439 1438 1437 1436 1435 1434 1433 1432 1430 1429 1428 1426 1425 1423 1422 1421 1419 1418 1417 1415 1413 1412 1411 1409 1407
1444 1444 1444 1443 1443 1443 1443 1442 1442 1442 1441 1441 1440 1440 1439 1439 1438 1438 1437 1436 1435 1434 1433 1432 1431 1430 1428 1427 1425 1424 1422 1421 1420 1418 1417 1415 1414 1413 1411 1409 1408 1406 1405
1442 1442 1442 1441 1441 1441 1441 1441 1440 1440 1439 1438 1438 1437 1437 1437 1436 1436 1435 1434 1433 1432 1431 1430 1428 1427 1426 1424 1423 1422 1420 1419 1417 1416 1414 1413 1412 1410 1409 1407 1406 1404 1403
1440 1440 1440 1439 1439 1439 1439 1438 1438 1437 1437 1436 1436 1435 1435 1434 1434 1433 1433 1432 1431 1430 1429 1428 1426 1425 1423 1422 1420 1419 1418 1416 1415 1414 1412 1411 1409 1408 1407 1405 1404 1402 1401
1438 1438 1437 1437 1437 1437 1436 1436 1435 1435 1434 1434 1433 1433 1433 1432 1431 1431 1430 1429 1428 1427 1426 1425 1424 1422 1421 1419 1417 1416 1415 1414 1413 1411 1410 1408 1407 1406 1405 1403 1402 1400 1399